AUA297W LOWW-EBBR

Flight info

Callsign AUA297W
Flight time 1h 30m
Altitude 36000
Route MEDIX DCT RENKA DCT INBED DCT TEKTU DCT TESGA DCT UMUPU T880 BATTY
Aircraft A320/M-SDE3FGHIRWY/LB1

Departure

Time 2026-04-26 15:31
Airport Vienna International Airport (LOWW)

Arrival

Time 2026-04-26 17:02
Airport Brussels Airport (EBBR)
Time Latitude Longitude Altitude Speed Heading
2026-04-26 15:06 48.11611 16.57101 609 ft 0 kts 25°
2026-04-26 15:23 48.11623 16.57109 617 ft 8 kts 25°
2026-04-26 15:24 48.11663 16.57161 613 ft 10 kts 79°
2026-04-26 15:24 48.11646 16.57245 617 ft 0 kts 115°
2026-04-26 15:27 48.11644 16.57251 621 ft 4 kts 115°
2026-04-26 15:27 48.11625 16.57312 614 ft 7 kts 115°
2026-04-26 15:27 48.11591 16.57416 609 ft 13 kts 116°
2026-04-26 15:27 48.11584 16.57438 619 ft 0 kts 116°
2026-04-26 15:28 48.11575 16.57464 612 ft 11 kts 116°
2026-04-26 15:28 48.11515 16.57589 615 ft 14 kts 145°
2026-04-26 15:28 48.11425 16.57634 613 ft 13 kts 164°
2026-04-26 15:28 48.11336 16.57671 612 ft 16 kts 164°
2026-04-26 15:29 48.11238 16.57670 617 ft 12 kts 206°
2026-04-26 15:29 48.11172 16.57621 625 ft 11 kts 206°
2026-04-26 15:29 48.11010 16.57626 609 ft 16 kts 205°
2026-04-26 15:30 48.10940 16.57447 621 ft 7 kts 297°
2026-04-26 15:30 48.10974 16.57347 612 ft 22 kts 297°
2026-04-26 15:30 48.11069 16.57057 618 ft 71 kts 296°
2026-04-26 15:31 48.11523 16.55659 618 ft 149 kts 296°
2026-04-26 15:31 48.12169 16.52368 1639 ft 178 kts 270°
2026-04-26 15:31 48.12012 16.51122 2076 ft 186 kts 258°
2026-04-26 15:32 48.11390 16.47878 2915 ft 207 kts 262°
2026-04-26 15:32 48.10978 16.44871 3472 ft 234 kts 263°
2026-04-26 15:32 48.10625 16.42440 4173 ft 241 kts 261°
2026-04-26 15:33 48.10238 16.39945 4875 ft 254 kts 261°
2026-04-26 15:33 48.09853 16.37322 5687 ft 259 kts 266°
2026-04-26 15:33 48.09957 16.34712 6706 ft 251 kts 286°
2026-04-26 15:33 48.10412 16.32176 7676 ft 251 kts 287°
2026-04-26 15:34 48.10875 16.29641 8531 ft 255 kts 287°
2026-04-26 15:34 48.11351 16.27056 9350 ft 260 kts 288°
2026-04-26 15:34 48.11834 16.24421 10169 ft 266 kts 288°
2026-04-26 15:34 48.12345 16.21649 10516 ft 288 kts 288°
2026-04-26 15:35 48.12900 16.18647 10766 ft 311 kts 288°
2026-04-26 15:35 48.13495 16.15418 11121 ft 329 kts 287°
2026-04-26 15:35 48.14104 16.12081 11782 ft 335 kts 287°
2026-04-26 15:35 48.14719 16.08689 12495 ft 339 kts 287°
2026-04-26 15:36 48.15341 16.05254 13211 ft 343 kts 287°
2026-04-26 15:36 48.15970 16.01783 13925 ft 347 kts 287°
2026-04-26 15:36 48.16608 15.98270 14569 ft 351 kts 287°
2026-04-26 15:36 48.17249 15.94729 15183 ft 355 kts 287°
2026-04-26 15:37 48.17899 15.91137 15790 ft 359 kts 287°
2026-04-26 15:37 48.18555 15.87505 16401 ft 362 kts 287°
2026-04-26 15:37 48.19215 15.83839 17006 ft 366 kts 287°
2026-04-26 15:37 48.19882 15.80128 17595 ft 370 kts 287°
2026-04-26 15:38 48.20554 15.76385 18175 ft 374 kts 287°
2026-04-26 15:38 48.21233 15.72589 18731 ft 378 kts 287°
2026-04-26 15:38 48.21915 15.68764 19276 ft 381 kts 287°
2026-04-26 15:38 48.22600 15.64912 19843 ft 383 kts 287°
2026-04-26 15:39 48.23287 15.61041 20390 ft 386 kts 287°
2026-04-26 15:39 48.23981 15.57134 20930 ft 388 kts 287°
2026-04-26 15:39 48.24670 15.53251 21450 ft 390 kts 286°
2026-04-26 15:39 48.25142 15.50585 21798 ft 392 kts 286°
2026-04-26 15:40 48.26070 15.45330 22461 ft 395 kts 286°
2026-04-26 15:40 48.26772 15.41338 22959 ft 397 kts 286°
2026-04-26 15:40 48.27476 15.37319 23441 ft 399 kts 285°
2026-04-26 15:40 48.28183 15.33273 23859 ft 402 kts 285°
2026-04-26 15:41 48.28892 15.29201 24235 ft 404 kts 285°
2026-04-26 15:41 48.29604 15.25108 24612 ft 406 kts 285°
2026-04-26 15:41 48.30318 15.21011 24984 ft 408 kts 285°
2026-04-26 15:41 48.31036 15.16877 25343 ft 409 kts 285°
2026-04-26 15:42 48.31755 15.12732 25706 ft 411 kts 285°
2026-04-26 15:42 48.32475 15.08568 26062 ft 413 kts 285°
2026-04-26 15:42 48.33194 15.04379 26409 ft 415 kts 285°
2026-04-26 15:42 48.33912 15.00172 26737 ft 416 kts 285°
2026-04-26 15:43 48.34633 14.95947 27079 ft 418 kts 285°
2026-04-26 15:43 48.35356 14.91713 27414 ft 419 kts 285°
2026-04-26 15:43 48.36811 14.83187 28048 ft 422 kts 285°
2026-04-26 15:44 48.37538 14.78909 28354 ft 423 kts 285°
2026-04-26 15:44 48.38996 14.70297 28922 ft 426 kts 284°
2026-04-26 15:44 48.39725 14.65965 29179 ft 428 kts 284°
2026-04-26 15:45 48.41178 14.57300 29852 ft 426 kts 284°
2026-04-26 15:45 48.41899 14.52984 30227 ft 424 kts 284°
2026-04-26 15:46 48.43329 14.44394 30848 ft 422 kts 284°
2026-04-26 15:46 48.44042 14.40105 31121 ft 422 kts 284°
2026-04-26 15:46 48.44754 14.35821 31409 ft 421 kts 284°
2026-04-26 15:46 48.45223 14.32987 31608 ft 420 kts 284°
2026-04-26 15:47 48.46161 14.27285 32013 ft 419 kts 283°
2026-04-26 15:47 48.47552 14.18744 32598 ft 418 kts 283°
2026-04-26 15:47 48.48244 14.14499 32897 ft 417 kts 283°
2026-04-26 15:48 48.48937 14.10246 33202 ft 416 kts 283°
2026-04-26 15:48 48.49628 14.06020 33503 ft 415 kts 283°
2026-04-26 15:48 48.50317 14.01792 33815 ft 415 kts 283°
2026-04-26 15:48 48.51001 13.97571 34125 ft 414 kts 283°
2026-04-26 15:49 48.51670 13.93415 34396 ft 413 kts 283°
2026-04-26 15:49 48.52353 13.89157 34645 ft 413 kts 283°
2026-04-26 15:49 48.53028 13.84946 34888 ft 413 kts 283°
2026-04-26 15:49 48.53700 13.80743 35132 ft 412 kts 283°
2026-04-26 15:50 48.54373 13.76532 35352 ft 413 kts 283°
2026-04-26 15:50 48.55046 13.72318 35557 ft 413 kts 283°
2026-04-26 15:50 48.55711 13.68158 35764 ft 413 kts 283°
2026-04-26 15:50 48.56389 13.63887 35976 ft 413 kts 283°
2026-04-26 15:51 48.57044 13.59722 36149 ft 413 kts 282°
2026-04-26 15:51 48.58453 13.51217 36199 ft 416 kts 288°
2026-04-26 15:52 48.60880 13.43269 36201 ft 418 kts 295°
2026-04-26 15:52 48.63468 13.35405 36203 ft 418 kts 295°
2026-04-26 15:53 48.66038 13.27526 36203 ft 418 kts 294°
2026-04-26 15:53 48.68606 13.19642 36206 ft 418 kts 294°
2026-04-26 15:54 48.71169 13.11741 36210 ft 418 kts 294°
2026-04-26 15:54 48.73726 13.03842 36214 ft 418 kts 294°
2026-04-26 15:55 48.76266 12.95984 36217 ft 418 kts 294°
2026-04-26 15:55 48.78810 12.88072 36219 ft 418 kts 294°
2026-04-26 15:56 48.81346 12.80143 36224 ft 418 kts 294°
2026-04-26 15:56 48.83902 12.72151 36224 ft 418 kts 294°
2026-04-26 15:57 48.86443 12.64209 36229 ft 418 kts 294°
2026-04-26 15:57 48.88973 12.56255 36227 ft 418 kts 294°
2026-04-26 15:58 48.91498 12.48293 36232 ft 418 kts 294°
2026-04-26 15:58 48.94016 12.40315 36230 ft 418 kts 294°
2026-04-26 15:59 48.96531 12.32328 36227 ft 419 kts 294°
2026-04-26 15:59 48.98619 12.25678 36227 ft 419 kts 294°
2026-04-26 16:01 49.01131 12.17657 36232 ft 419 kts 294°
2026-04-26 16:01 49.03634 12.09628 36229 ft 419 kts 294°
2026-04-26 16:02 49.06136 12.01597 36232 ft 419 kts 295°
2026-04-26 16:02 49.08792 11.93670 36242 ft 420 kts 295°
2026-04-26 16:03 49.11234 11.85579 36245 ft 420 kts 292°
2026-04-26 16:03 49.13607 11.77429 36233 ft 420 kts 293°
2026-04-26 16:04 49.16056 11.69309 36240 ft 421 kts 294°
2026-04-26 16:04 49.18546 11.61204 36232 ft 421 kts 294°
2026-04-26 16:05 49.20952 11.53374 36233 ft 421 kts 294°
2026-04-26 16:05 49.23427 11.45244 36226 ft 421 kts 294°
2026-04-26 16:06 49.25873 11.37153 36226 ft 422 kts 294°
2026-04-26 16:06 49.28337 11.29000 36237 ft 422 kts 294°
2026-04-26 16:07 49.30795 11.20837 36235 ft 422 kts 294°
2026-04-26 16:07 49.32847 11.13991 36245 ft 422 kts 294°
2026-04-26 16:08 49.35292 11.05810 36246 ft 422 kts 294°
2026-04-26 16:08 49.37733 10.97616 36248 ft 422 kts 294°
2026-04-26 16:09 49.40964 10.90112 36246 ft 424 kts 309°
2026-04-26 16:09 49.44769 10.83180 36246 ft 424 kts 308°
2026-04-26 16:10 49.48532 10.76270 36250 ft 424 kts 308°
2026-04-26 16:10 49.52315 10.69290 36243 ft 424 kts 308°
2026-04-26 16:11 49.56092 10.62302 36249 ft 424 kts 308°
2026-04-26 16:11 49.59866 10.55323 36241 ft 424 kts 308°
2026-04-26 16:12 49.63639 10.48340 36256 ft 424 kts 308°
2026-04-26 16:12 49.69280 10.37842 36257 ft 423 kts 308°
2026-04-26 16:13 49.73033 10.30814 36254 ft 423 kts 308°
2026-04-26 16:13 49.76783 10.23794 36257 ft 423 kts 308°
2026-04-26 16:14 49.80525 10.16765 36272 ft 423 kts 308°
2026-04-26 16:15 49.86132 10.06210 36265 ft 423 kts 308°
2026-04-26 16:15 49.89862 9.99161 36260 ft 422 kts 308°
2026-04-26 16:16 49.95435 9.88562 36264 ft 422 kts 308°
2026-04-26 16:16 49.99158 9.81480 36262 ft 422 kts 308°
2026-04-26 16:17 50.02875 9.74402 36262 ft 422 kts 308°
2026-04-26 16:17 50.06582 9.67299 36256 ft 422 kts 308°
2026-04-26 16:18 50.12056 9.56781 36253 ft 422 kts 308°
2026-04-26 16:19 50.15383 9.50373 36265 ft 422 kts 308°
2026-04-26 16:20 50.20996 9.39526 36268 ft 422 kts 308°
2026-04-26 16:20 50.26390 9.28756 36267 ft 421 kts 300°
2026-04-26 16:21 50.27515 9.24546 36261 ft 421 kts 284°
2026-04-26 16:21 50.28121 9.20010 36254 ft 421 kts 282°
2026-04-26 16:21 50.29242 9.11013 36247 ft 422 kts 282°
2026-04-26 16:22 50.30350 9.02003 36247 ft 422 kts 282°
2026-04-26 16:22 50.31461 8.92977 36248 ft 422 kts 282°
2026-04-26 16:23 50.32562 8.83973 36260 ft 422 kts 282°
2026-04-26 16:23 50.33662 8.74940 36252 ft 422 kts 282°
2026-04-26 16:24 50.34752 8.65911 36262 ft 423 kts 282°
2026-04-26 16:24 50.35841 8.56753 36259 ft 423 kts 282°
2026-04-26 16:25 50.36901 8.47806 36259 ft 423 kts 282°
2026-04-26 16:25 50.37965 8.38740 36257 ft 423 kts 282°
2026-04-26 16:26 50.38855 8.31202 36263 ft 423 kts 282°
2026-04-26 16:26 50.40089 8.20667 36255 ft 423 kts 282°
2026-04-26 16:27 50.41139 8.11611 36254 ft 423 kts 282°
2026-04-26 16:27 50.42176 8.02539 36250 ft 423 kts 282°
2026-04-26 16:28 50.43213 7.93473 36253 ft 422 kts 282°
2026-04-26 16:28 50.44217 7.84612 36250 ft 422 kts 282°
2026-04-26 16:29 50.45242 7.75528 36254 ft 422 kts 282°
2026-04-26 16:29 50.46254 7.66436 36253 ft 422 kts 281°
2026-04-26 16:30 50.47254 7.57349 36253 ft 422 kts 281°
2026-04-26 16:30 50.48250 7.48260 36254 ft 422 kts 281°
2026-04-26 16:31 50.49245 7.39162 36255 ft 422 kts 281°
2026-04-26 16:31 50.50236 7.30079 36257 ft 422 kts 281°
2026-04-26 16:32 50.51042 7.22520 36208 ft 421 kts 281°
2026-04-26 16:32 50.51688 7.16422 35533 ft 422 kts 281°
2026-04-26 16:32 50.52170 7.11871 35027 ft 422 kts 281°
2026-04-26 16:33 50.52654 7.07318 34557 ft 423 kts 281°
2026-04-26 16:33 50.53139 7.02757 34048 ft 423 kts 282°
2026-04-26 16:33 50.53627 6.98144 33489 ft 424 kts 281°
2026-04-26 16:33 50.54104 6.93598 32959 ft 425 kts 281°
2026-04-26 16:34 50.54580 6.89010 32435 ft 427 kts 281°
2026-04-26 16:34 50.55057 6.84395 31918 ft 428 kts 281°
2026-04-26 16:34 50.55541 6.79709 31402 ft 429 kts 281°
2026-04-26 16:34 50.56019 6.75069 30902 ft 430 kts 281°
2026-04-26 16:35 50.56496 6.70427 30410 ft 431 kts 281°
2026-04-26 16:35 50.56974 6.65751 29854 ft 433 kts 281°
2026-04-26 16:35 50.57451 6.61074 29292 ft 434 kts 281°
2026-04-26 16:35 50.57924 6.56424 28743 ft 436 kts 281°
2026-04-26 16:36 50.58400 6.51708 28208 ft 438 kts 281°
2026-04-26 16:36 50.58885 6.46908 27619 ft 438 kts 281°
2026-04-26 16:36 50.59358 6.42187 27050 ft 435 kts 281°
2026-04-26 16:36 50.59824 6.37492 26490 ft 432 kts 281°
2026-04-26 16:37 50.60281 6.32835 25941 ft 429 kts 281°
2026-04-26 16:37 50.60734 6.28210 25402 ft 426 kts 281°
2026-04-26 16:37 50.61183 6.23626 24868 ft 423 kts 281°
2026-04-26 16:37 50.61481 6.20592 24529 ft 421 kts 281°
2026-04-26 16:38 50.62075 6.14526 23838 ft 417 kts 280°
2026-04-26 16:38 50.62513 6.10031 23252 ft 414 kts 280°
2026-04-26 16:38 50.62800 6.07065 22858 ft 412 kts 280°
2026-04-26 16:38 50.63230 6.02609 22275 ft 410 kts 280°
2026-04-26 16:39 50.63655 5.98184 21701 ft 407 kts 280°
2026-04-26 16:39 50.64076 5.93786 21142 ft 405 kts 279°
2026-04-26 16:39 50.64493 5.89418 20593 ft 402 kts 281°
2026-04-26 16:39 50.65418 5.83801 19919 ft 398 kts 291°
2026-04-26 16:40 50.66146 5.81089 19589 ft 397 kts 296°
2026-04-26 16:40 50.67398 5.77224 19118 ft 395 kts 297°
2026-04-26 16:40 50.68670 5.73290 18645 ft 394 kts 297°
2026-04-26 16:40 50.69878 5.69517 18129 ft 392 kts 297°
2026-04-26 16:41 50.71101 5.65691 17599 ft 389 kts 297°
2026-04-26 16:41 50.72310 5.61908 17078 ft 386 kts 297°
2026-04-26 16:41 50.73517 5.58133 16569 ft 383 kts 297°
2026-04-26 16:41 50.74709 5.54403 16059 ft 380 kts 297°
2026-04-26 16:42 50.75898 5.50686 15644 ft 377 kts 297°
2026-04-26 16:42 50.77077 5.46999 15274 ft 375 kts 297°
2026-04-26 16:42 50.78250 5.43327 14910 ft 373 kts 297°
2026-04-26 16:42 50.79417 5.39674 14544 ft 371 kts 297°
2026-04-26 16:43 50.80577 5.36045 14191 ft 369 kts 297°
2026-04-26 16:43 50.81747 5.32389 13808 ft 365 kts 297°
2026-04-26 16:43 50.82876 5.28850 13483 ft 355 kts 297°
2026-04-26 16:43 50.83955 5.25456 13217 ft 343 kts 297°
2026-04-26 16:44 50.85010 5.22130 12950 ft 333 kts 297°
2026-04-26 16:44 50.86033 5.18893 12702 ft 325 kts 297°
2026-04-26 16:44 50.87039 5.15700 12445 ft 322 kts 297°
2026-04-26 16:44 50.88035 5.12531 12189 ft 321 kts 297°
2026-04-26 16:45 50.88691 5.10442 12029 ft 318 kts 297°
2026-04-26 16:47 50.89229 5.08580 11813 ft 315 kts 292°
2026-04-26 16:47 50.89939 5.05924 11601 ft 308 kts 296°
2026-04-26 16:47 50.90864 5.02892 11349 ft 300 kts 297°
2026-04-26 16:47 50.91769 4.99963 11102 ft 293 kts 297°
2026-04-26 16:48 50.92664 4.97053 10855 ft 286 kts 297°
2026-04-26 16:48 50.93526 4.94241 10614 ft 281 kts 297°
2026-04-26 16:48 50.94374 4.91465 10382 ft 279 kts 297°
2026-04-26 16:48 50.95218 4.88693 10137 ft 278 kts 297°
2026-04-26 16:49 50.96065 4.85899 9870 ft 277 kts 297°
2026-04-26 16:49 50.96890 4.83169 9607 ft 276 kts 297°
2026-04-26 16:49 50.97716 4.80425 9350 ft 275 kts 297°
2026-04-26 16:49 50.98540 4.77687 9087 ft 274 kts 297°
2026-04-26 16:50 50.99352 4.74989 8834 ft 273 kts 297°
2026-04-26 16:50 51.00169 4.72269 8572 ft 272 kts 297°
2026-04-26 16:50 51.00992 4.69520 8319 ft 272 kts 297°
2026-04-26 16:50 51.01790 4.66848 8074 ft 271 kts 297°
2026-04-26 16:51 51.02596 4.64138 7818 ft 270 kts 297°
2026-04-26 16:51 51.03400 4.61440 7569 ft 269 kts 297°
2026-04-26 16:51 51.04198 4.58750 7326 ft 269 kts 297°
2026-04-26 16:51 51.04841 4.55975 7080 ft 269 kts 279°
2026-04-26 16:52 51.04683 4.53022 6842 ft 273 kts 254°
2026-04-26 16:52 51.04193 4.51133 6676 ft 275 kts 245°
2026-04-26 16:52 51.02978 4.47592 6331 ft 275 kts 243°
2026-04-26 16:52 51.02025 4.44907 6070 ft 275 kts 243°
2026-04-26 16:53 51.01089 4.42270 5808 ft 274 kts 243°
2026-04-26 16:53 51.00156 4.39641 5552 ft 273 kts 243°
2026-04-26 16:53 50.99234 4.37046 5310 ft 272 kts 243°
2026-04-26 16:53 50.98305 4.34432 5049 ft 271 kts 243°
2026-04-26 16:54 50.97380 4.31825 4787 ft 271 kts 243°
2026-04-26 16:54 50.96444 4.29184 4513 ft 270 kts 243°
2026-04-26 16:54 50.95512 4.26558 4274 ft 269 kts 242°
2026-04-26 16:54 50.94596 4.23977 4018 ft 268 kts 243°
2026-04-26 16:55 50.93688 4.21411 3761 ft 263 kts 242°
2026-04-26 16:55 50.92807 4.18902 3505 ft 257 kts 243°
2026-04-26 16:55 50.91932 4.16462 3236 ft 252 kts 238°
2026-04-26 16:55 50.90689 4.14608 3049 ft 244 kts 206°
2026-04-26 16:56 50.87634 4.14913 3004 ft 220 kts 147°
2026-04-26 16:56 50.86366 4.16221 3017 ft 217 kts 143°
2026-04-26 16:56 50.85132 4.17584 3005 ft 216 kts 143°
2026-04-26 16:57 50.84051 4.19171 3005 ft 205 kts 120°
2026-04-26 16:57 50.83535 4.21155 3041 ft 185 kts 97°
2026-04-26 16:57 50.83895 4.24945 3016 ft 173 kts 62°
2026-04-26 16:58 50.84405 4.26683 2762 ft 175 kts 62°
2026-04-26 16:58 50.84744 4.27842 2596 ft 174 kts 62°
2026-04-26 16:58 50.85909 4.31824 2061 ft 162 kts 63°
2026-04-26 16:59 50.86354 4.33361 1850 ft 147 kts 63°
2026-04-26 16:59 50.87167 4.36174 1474 ft 137 kts 61°
2026-04-26 17:00 50.87950 4.38900 1079 ft 134 kts 63°
2026-04-26 17:00 50.88720 4.41596 749 ft 133 kts 63°
2026-04-26 17:00 50.89102 4.42923 665 ft 133 kts 62°
2026-04-26 17:01 50.89495 4.44254 425 ft 133 kts 62°
2026-04-26 17:01 50.89889 4.45562 224 ft 130 kts 62°
2026-04-26 17:01 50.90256 4.46822 129 ft 114 kts 63°
2026-04-26 17:01 50.90520 4.47737 121 ft 64 kts 65°
2026-04-26 17:02 50.90631 4.48117 120 ft 24 kts 66°
2026-04-26 17:02 50.90645 4.48339 119 ft 14 kts 115°
2026-04-26 17:02 50.90595 4.48472 119 ft 13 kts 121°
2026-04-26 17:02 50.90550 4.48593 117 ft 12 kts 120°
2026-04-26 17:03 50.90542 4.48718 119 ft 14 kts 71°
2026-04-26 17:03 50.90588 4.48877 119 ft 17 kts 64°
2026-04-26 17:03 50.90640 4.49055 117 ft 15 kts 66°
2026-04-26 17:03 50.90599 4.49169 121 ft 11 kts 155°
2026-04-26 17:04 50.90532 4.49217 121 ft 11 kts 155°
2026-04-26 17:04 50.90452 4.49276 119 ft 13 kts 155°
2026-04-26 17:04 50.90380 4.49240 121 ft 17 kts 242°
2026-04-26 17:04 50.90342 4.49118 123 ft 18 kts 245°
2026-04-26 17:05 50.90287 4.48926 120 ft 12 kts 245°
2026-04-26 17:05 50.90261 4.48836 121 ft 15 kts 245°
2026-04-26 17:05 50.90221 4.48695 121 ft 13 kts 245°
2026-04-26 17:05 50.90183 4.48567 120 ft 12 kts 244°
2026-04-26 17:06 50.90177 4.48480 124 ft 8 kts 308°
2026-04-26 17:06 50.90219 4.48458 120 ft 6 kts 339°
2026-04-26 17:06 50.90238 4.48445 117 ft 2 kts 336°